Year,Month,Day,Hour,Minute,Value (Times are PST for temperature in C)
2009,03,04,00,00,2.80
2009,03,04,00,01,2.80
2009,03,04,00,02,2.80
2009,03,04,00,03,2.70
2009,03,04,00,04,2.70
2009,03,04,00,05,2.70
2009,03,04,00,06,2.70
2009,03,04,00,07,2.70
2009,03,04,00,08,2.70
2009,03,04,00,09,2.70
2009,03,04,00,10,2.70
2009,03,04,00,11,2.70
2009,03,04,00,12,2.80
2009,03,04,00,13,2.80
2009,03,04,00,14,2.80
2009,03,04,00,15,2.80
2009,03,04,00,16,2.80
2009,03,04,00,17,2.80
2009,03,04,00,18,2.80
2009,03,04,00,19,2.80
2009,03,04,00,20,2.80
2009,03,04,00,21,2.80
2009,03,04,00,22,2.90
2009,03,04,00,23,2.90
2009,03,04,00,24,2.80
2009,03,04,00,25,2.80
2009,03,04,00,26,2.80
2009,03,04,00,27,2.80
2009,03,04,00,28,2.80
2009,03,04,00,29,2.80
2009,03,04,00,30,2.80
2009,03,04,00,31,2.80
2009,03,04,00,32,2.80
2009,03,04,00,33,2.80
2009,03,04,00,34,2.80
2009,03,04,00,35,2.90
2009,03,04,00,36,3.00
2009,03,04,00,37,3.10
2009,03,04,00,38,3.10
2009,03,04,00,39,3.10
2009,03,04,00,40,3.20
2009,03,04,00,41,3.20
2009,03,04,00,42,3.20
2009,03,04,00,43,3.20
2009,03,04,00,44,3.20
2009,03,04,00,45,3.20
2009,03,04,00,46,3.20
2009,03,04,00,47,3.20
2009,03,04,00,48,3.20
2009,03,04,00,49,3.20
2009,03,04,00,50,3.30
2009,03,04,00,51,3.30
2009,03,04,00,52,3.40
2009,03,04,00,53,3.40
2009,03,04,00,54,3.40
2009,03,04,00,55,3.50
2009,03,04,00,56,3.50
2009,03,04,00,57,3.50
2009,03,04,00,58,3.50
2009,03,04,00,59,3.60
2009,03,04,01,00,3.60
2009,03,04,01,01,3.60
2009,03,04,01,02,3.60
2009,03,04,01,03,3.60
2009,03,04,01,04,3.60
2009,03,04,01,05,3.50
2009,03,04,01,06,3.50
2009,03,04,01,07,3.50
2009,03,04,01,08,3.50
2009,03,04,01,09,3.50
2009,03,04,01,10,3.50
2009,03,04,01,11,3.50
2009,03,04,01,12,3.40
2009,03,04,01,13,3.40
2009,03,04,01,14,3.40
2009,03,04,01,15,3.40
2009,03,04,01,16,3.30
2009,03,04,01,17,3.30
2009,03,04,01,18,3.30
2009,03,04,01,19,3.20
2009,03,04,01,20,3.20
2009,03,04,01,21,3.10
2009,03,04,01,22,3.10
2009,03,04,01,23,3.00
2009,03,04,01,24,3.00
2009,03,04,01,25,2.90
2009,03,04,01,26,2.80
2009,03,04,01,27,2.70
2009,03,04,01,28,2.70
2009,03,04,01,29,2.60
2009,03,04,01,30,2.50
2009,03,04,01,31,2.50
2009,03,04,01,32,2.40
2009,03,04,01,33,2.40
2009,03,04,01,34,2.30
2009,03,04,01,35,2.30
2009,03,04,01,36,2.30
2009,03,04,01,37,2.30
2009,03,04,01,38,2.30
2009,03,04,01,39,2.30
2009,03,04,01,40,2.30
2009,03,04,01,41,2.20
2009,03,04,01,42,2.20
2009,03,04,01,43,2.20
2009,03,04,01,44,2.20
2009,03,04,01,45,2.20
2009,03,04,01,46,2.20
2009,03,04,01,47,2.20
2009,03,04,01,48,2.20
2009,03,04,01,49,2.10
2009,03,04,01,50,2.10
2009,03,04,01,51,2.10
2009,03,04,01,52,2.00
2009,03,04,01,53,2.00
2009,03,04,01,54,1.90
2009,03,04,01,55,1.90
2009,03,04,01,56,1.90
2009,03,04,01,57,1.80
2009,03,04,01,58,1.80
2009,03,04,01,59,1.80
2009,03,04,02,00,1.80
2009,03,04,02,01,1.80
2009,03,04,02,02,1.80
2009,03,04,02,03,1.80
2009,03,04,02,04,1.80
2009,03,04,02,05,1.70
2009,03,04,02,06,1.70
2009,03,04,02,07,1.70
2009,03,04,02,08,1.70
2009,03,04,02,09,1.70
2009,03,04,02,10,1.70
2009,03,04,02,11,1.70
2009,03,04,02,12,1.70
2009,03,04,02,13,1.70
2009,03,04,02,14,1.60
2009,03,04,02,15,1.60
2009,03,04,02,16,1.60
2009,03,04,02,17,1.60
2009,03,04,02,18,1.60
2009,03,04,02,19,1.60
2009,03,04,02,20,1.60
2009,03,04,02,21,1.50
2009,03,04,02,22,1.50
2009,03,04,02,23,1.50
2009,03,04,02,24,1.50
2009,03,04,02,25,1.50
2009,03,04,02,26,1.50
2009,03,04,02,27,1.40
2009,03,04,02,28,1.40
2009,03,04,02,29,1.40
2009,03,04,02,30,1.30
2009,03,04,02,31,1.30
2009,03,04,02,32,1.30
2009,03,04,02,33,1.30
2009,03,04,02,34,1.30
2009,03,04,02,35,1.20
2009,03,04,02,36,1.20
2009,03,04,02,37,1.20
2009,03,04,02,38,1.20
2009,03,04,02,39,1.20
2009,03,04,02,40,1.30
2009,03,04,02,41,1.30
2009,03,04,02,42,1.30
2009,03,04,02,43,1.30
2009,03,04,02,44,1.30
2009,03,04,02,45,1.30
2009,03,04,02,46,1.30
2009,03,04,02,47,1.30
2009,03,04,02,48,1.30
2009,03,04,02,49,1.30
2009,03,04,02,50,1.30
2009,03,04,02,51,1.30
2009,03,04,02,52,1.30
2009,03,04,02,53,1.30
2009,03,04,02,54,1.30
2009,03,04,02,55,1.30
2009,03,04,02,56,1.30
2009,03,04,02,57,1.30
2009,03,04,02,58,1.30
2009,03,04,02,59,1.30
2009,03,04,03,00,1.20
2009,03,04,03,01,1.20
2009,03,04,03,02,1.20
2009,03,04,03,03,1.10
2009,03,04,03,04,1.10
2009,03,04,03,05,1.10
2009,03,04,03,06,1.10
2009,03,04,03,07,1.10
2009,03,04,03,08,1.10
2009,03,04,03,09,1.10
2009,03,04,03,10,1.10
2009,03,04,03,11,1.10
2009,03,04,03,12,1.00
2009,03,04,03,13,1.00
2009,03,04,03,14,1.00
2009,03,04,03,15,0.90
2009,03,04,03,16,0.90
2009,03,04,03,17,0.90
2009,03,04,03,18,0.90
2009,03,04,03,19,0.90
2009,03,04,03,20,0.90
2009,03,04,03,21,0.90
2009,03,04,03,22,0.90
2009,03,04,03,23,0.80
2009,03,04,03,24,0.80
2009,03,04,03,25,0.80
2009,03,04,03,26,0.80
2009,03,04,03,27,0.80
2009,03,04,03,28,0.80
2009,03,04,03,29,0.80
2009,03,04,03,30,0.80
2009,03,04,03,31,0.70
2009,03,04,03,32,0.70
2009,03,04,03,33,0.70
2009,03,04,03,34,0.70
2009,03,04,03,35,0.70
2009,03,04,03,36,0.70
2009,03,04,03,37,0.60
2009,03,04,03,38,0.60
2009,03,04,03,39,0.60
2009,03,04,03,40,0.60
2009,03,04,03,41,0.60
2009,03,04,03,42,0.60
2009,03,04,03,43,0.60
2009,03,04,03,44,0.60
2009,03,04,03,45,0.60
2009,03,04,03,46,0.60
2009,03,04,03,47,0.60
2009,03,04,03,48,0.60
2009,03,04,03,49,0.60
2009,03,04,03,50,0.60
2009,03,04,03,51,0.60
2009,03,04,03,52,0.60
2009,03,04,03,53,0.60
2009,03,04,03,54,0.60
2009,03,04,03,55,0.60
2009,03,04,03,56,0.60
2009,03,04,03,57,0.60
2009,03,04,03,58,0.60
2009,03,04,03,59,0.60
2009,03,04,04,00,0.60
2009,03,04,04,01,0.60
2009,03,04,04,02,0.60
2009,03,04,04,03,0.60
2009,03,04,04,04,0.60
2009,03,04,04,05,0.60
2009,03,04,04,06,0.60
2009,03,04,04,07,0.60
2009,03,04,04,08,0.60
2009,03,04,04,09,0.60
2009,03,04,04,10,0.60
2009,03,04,04,11,0.60
2009,03,04,04,12,0.60
2009,03,04,04,13,0.60
2009,03,04,04,14,0.60
2009,03,04,04,15,0.70
2009,03,04,04,16,0.70
2009,03,04,04,17,0.70
2009,03,04,04,18,0.70
2009,03,04,04,19,0.70
2009,03,04,04,20,0.70
2009,03,04,04,21,0.70
2009,03,04,04,22,0.70
2009,03,04,04,23,0.80
2009,03,04,04,24,0.80
2009,03,04,04,25,0.80
2009,03,04,04,26,0.90
2009,03,04,04,27,0.90
2009,03,04,04,28,0.90
2009,03,04,04,29,1.00
2009,03,04,04,30,1.00
2009,03,04,04,31,1.10
2009,03,04,04,32,1.10
2009,03,04,04,33,1.10
2009,03,04,04,34,1.10
2009,03,04,04,35,1.10
2009,03,04,04,36,1.10
2009,03,04,04,37,1.10
2009,03,04,04,38,1.10
2009,03,04,04,39,1.10
2009,03,04,04,40,1.20
2009,03,04,04,41,1.10
2009,03,04,04,42,1.10
2009,03,04,04,43,1.10
2009,03,04,04,44,1.20
2009,03,04,04,45,1.20
2009,03,04,04,46,1.20
2009,03,04,04,47,1.20
2009,03,04,04,48,1.30
2009,03,04,04,49,1.30
2009,03,04,04,50,1.30
2009,03,04,04,51,1.30
2009,03,04,04,52,1.30
2009,03,04,04,53,1.30
2009,03,04,04,54,1.30
2009,03,04,04,55,1.30
2009,03,04,04,56,1.30
2009,03,04,04,57,1.40
2009,03,04,04,58,1.40
2009,03,04,04,59,1.40
2009,03,04,05,00,1.40
2009,03,04,05,01,1.50
2009,03,04,05,02,1.50
2009,03,04,05,03,1.50
2009,03,04,05,04,1.50
2009,03,04,05,05,1.50
2009,03,04,05,06,1.60
2009,03,04,05,07,1.60
2009,03,04,05,08,1.60
2009,03,04,05,09,1.70
2009,03,04,05,10,1.70
2009,03,04,05,11,1.70
2009,03,04,05,12,1.70
2009,03,04,05,13,1.70
2009,03,04,05,14,1.80
2009,03,04,05,15,1.80
2009,03,04,05,16,1.80
2009,03,04,05,17,1.80
2009,03,04,05,18,1.80
2009,03,04,05,19,1.80
2009,03,04,05,20,1.80
2009,03,04,05,21,1.80
2009,03,04,05,22,1.80
2009,03,04,05,23,1.80
2009,03,04,05,24,1.80
2009,03,04,05,25,1.90
2009,03,04,05,26,1.90
2009,03,04,05,27,1.90
2009,03,04,05,28,1.90
2009,03,04,05,29,1.90
2009,03,04,05,30,1.90
2009,03,04,05,31,1.90
2009,03,04,05,32,1.90
2009,03,04,05,33,2.00
2009,03,04,05,34,2.00
2009,03,04,05,35,2.10
2009,03,04,05,36,2.10
2009,03,04,05,37,2.10
2009,03,04,05,38,2.20
2009,03,04,05,39,2.20
2009,03,04,05,40,2.30
2009,03,04,05,41,2.30
2009,03,04,05,42,2.40
2009,03,04,05,43,2.50
2009,03,04,05,44,2.60
2009,03,04,05,45,2.60
2009,03,04,05,46,2.70
2009,03,04,05,47,2.80
2009,03,04,05,48,2.90
2009,03,04,05,49,3.00
2009,03,04,05,50,3.10
2009,03,04,05,51,3.10
2009,03,04,05,52,3.10
2009,03,04,05,53,3.10
2009,03,04,05,54,3.00
2009,03,04,05,55,3.00
2009,03,04,05,56,2.90
2009,03,04,05,57,2.90
2009,03,04,05,58,2.90
2009,03,04,05,59,3.00
2009,03,04,06,00,3.00
2009,03,04,06,01,3.10
2009,03,04,06,02,3.10
2009,03,04,06,03,3.10
2009,03,04,06,04,3.10
2009,03,04,06,05,3.10
2009,03,04,06,06,3.10
2009,03,04,06,07,3.10
2009,03,04,06,08,3.10
2009,03,04,06,09,3.10
2009,03,04,06,10,3.10
2009,03,04,06,11,3.10
2009,03,04,06,12,3.10
2009,03,04,06,13,3.10
2009,03,04,06,14,3.00
2009,03,04,06,15,3.00
2009,03,04,06,16,3.00
2009,03,04,06,17,3.00
2009,03,04,06,18,3.00
2009,03,04,06,19,3.00
2009,03,04,06,20,3.00
2009,03,04,06,21,3.00
2009,03,04,06,22,3.10
2009,03,04,06,23,3.10
2009,03,04,06,24,3.10
2009,03,04,06,25,3.10
2009,03,04,06,26,3.10
2009,03,04,06,27,3.10
2009,03,04,06,28,3.20
2009,03,04,06,29,3.20
2009,03,04,06,30,3.30
2009,03,04,06,31,3.30
2009,03,04,06,32,3.30
2009,03,04,06,33,3.30
2009,03,04,06,34,3.30
2009,03,04,06,35,3.30
2009,03,04,06,36,3.30
2009,03,04,06,37,3.30
2009,03,04,06,38,3.30
2009,03,04,06,39,3.30
2009,03,04,06,40,3.30
2009,03,04,06,41,3.30
2009,03,04,06,42,3.30
2009,03,04,06,43,3.30
2009,03,04,06,44,3.30
2009,03,04,06,45,3.30
2009,03,04,06,46,3.30
2009,03,04,06,47,3.30
2009,03,04,06,48,3.30
2009,03,04,06,49,3.30
2009,03,04,06,50,3.30
2009,03,04,06,51,3.30
2009,03,04,06,52,3.30
2009,03,04,06,53,3.40
2009,03,04,06,54,3.40
2009,03,04,06,55,3.40
2009,03,04,06,56,3.40
2009,03,04,06,57,3.40
2009,03,04,06,58,3.40
2009,03,04,06,59,3.40
2009,03,04,07,00,3.40
2009,03,04,07,01,3.40
2009,03,04,07,02,3.40
2009,03,04,07,03,3.40
2009,03,04,07,04,3.40
2009,03,04,07,05,3.40
2009,03,04,07,06,3.40
2009,03,04,07,07,3.40
2009,03,04,07,08,3.40
2009,03,04,07,09,3.40
2009,03,04,07,10,3.40
2009,03,04,07,11,3.40
2009,03,04,07,12,3.40
2009,03,04,07,13,3.50
2009,03,04,07,14,3.50
2009,03,04,07,15,3.50
2009,03,04,07,16,3.50
2009,03,04,07,17,3.50
2009,03,04,07,18,3.50
2009,03,04,07,19,3.50
2009,03,04,07,20,3.50
2009,03,04,07,21,3.50
2009,03,04,07,22,3.60
2009,03,04,07,23,3.60
2009,03,04,07,24,3.60
2009,03,04,07,25,3.50
2009,03,04,07,26,3.60
2009,03,04,07,27,3.50
2009,03,04,07,28,3.50
2009,03,04,07,29,3.50
2009,03,04,07,30,3.50
2009,03,04,07,31,3.50
2009,03,04,07,32,3.60
2009,03,04,07,33,3.60
2009,03,04,07,34,3.60
2009,03,04,07,35,3.60
2009,03,04,07,36,3.60
2009,03,04,07,37,3.60
2009,03,04,07,38,3.60
2009,03,04,07,39,3.60
2009,03,04,07,40,3.60
2009,03,04,07,41,3.60
2009,03,04,07,42,3.70
2009,03,04,07,43,3.70
2009,03,04,07,44,3.70
2009,03,04,07,45,3.70
2009,03,04,07,46,3.70
2009,03,04,07,47,3.80
2009,03,04,07,48,3.80
2009,03,04,07,49,3.80
2009,03,04,07,50,3.80
2009,03,04,07,51,3.80
2009,03,04,07,52,3.80
2009,03,04,07,53,3.80
2009,03,04,07,54,3.80
2009,03,04,07,55,3.80
2009,03,04,07,56,3.80
2009,03,04,07,57,3.80
2009,03,04,07,58,3.90
2009,03,04,07,59,3.90
2009,03,04,08,00,3.90
2009,03,04,08,01,3.90
2009,03,04,08,02,3.90
2009,03,04,08,03,3.90
2009,03,04,08,04,3.90
2009,03,04,08,05,3.90
2009,03,04,08,06,3.90
2009,03,04,08,07,3.90
2009,03,04,08,08,3.90
2009,03,04,08,09,3.90
2009,03,04,08,10,3.90
2009,03,04,08,11,4.00
2009,03,04,08,12,4.00
2009,03,04,08,13,4.00
2009,03,04,08,14,4.00
2009,03,04,08,15,4.10
2009,03,04,08,16,4.10
2009,03,04,08,17,4.10
2009,03,04,08,18,4.20
2009,03,04,08,19,4.20
2009,03,04,08,20,4.20
2009,03,04,08,21,4.20
2009,03,04,08,22,4.20
2009,03,04,08,23,4.20
2009,03,04,08,24,4.20
2009,03,04,08,25,4.20
2009,03,04,08,26,4.20
2009,03,04,08,27,4.20
2009,03,04,08,28,4.20
2009,03,04,08,29,4.20
2009,03,04,08,30,4.20
2009,03,04,08,31,4.20
2009,03,04,08,32,4.20
2009,03,04,08,33,4.20
2009,03,04,08,34,4.20
2009,03,04,08,35,4.30
2009,03,04,08,36,4.30
2009,03,04,08,37,4.30
2009,03,04,08,38,4.30
2009,03,04,08,39,4.30
2009,03,04,08,40,4.40
2009,03,04,08,41,4.40
2009,03,04,08,42,4.50
2009,03,04,08,43,4.50
2009,03,04,08,44,4.60
2009,03,04,08,45,4.60
2009,03,04,08,46,4.60
2009,03,04,08,47,4.60
2009,03,04,08,48,4.70
2009,03,04,08,49,4.70
2009,03,04,08,50,4.70
2009,03,04,08,51,4.70
2009,03,04,08,52,4.80
2009,03,04,08,53,4.80
2009,03,04,08,54,4.80
2009,03,04,08,55,4.80
2009,03,04,08,56,4.80
2009,03,04,08,57,4.90
2009,03,04,08,58,4.90
2009,03,04,08,59,4.90
2009,03,04,09,00,5.00
2009,03,04,09,01,5.10
2009,03,04,09,02,5.10
2009,03,04,09,03,5.20
2009,03,04,09,04,5.20
2009,03,04,09,05,5.30
2009,03,04,09,06,5.30
2009,03,04,09,07,5.30
2009,03,04,09,08,5.30
2009,03,04,09,09,5.40
2009,03,04,09,10,5.40
2009,03,04,09,11,5.40
2009,03,04,09,12,5.50
2009,03,04,09,13,5.50
2009,03,04,09,14,5.60
2009,03,04,09,15,5.60
2009,03,04,09,16,5.60
2009,03,04,09,17,5.60
2009,03,04,09,18,5.60
2009,03,04,09,19,5.60
2009,03,04,09,20,5.60
2009,03,04,09,21,5.60
2009,03,04,09,22,5.60
2009,03,04,09,23,5.70
2009,03,04,09,24,5.70
2009,03,04,09,25,5.70
2009,03,04,09,26,5.70
2009,03,04,09,27,5.80
2009,03,04,09,28,5.80
2009,03,04,09,29,5.80
2009,03,04,09,30,5.90
2009,03,04,09,31,5.90
2009,03,04,09,32,6.00
2009,03,04,09,33,6.00
2009,03,04,09,34,6.10
2009,03,04,09,35,6.20
2009,03,04,09,36,6.20
2009,03,04,09,37,6.20
2009,03,04,09,38,6.20
2009,03,04,09,39,6.30
2009,03,04,09,40,6.30
2009,03,04,09,41,6.30
2009,03,04,09,42,6.30
2009,03,04,09,43,6.30
2009,03,04,09,44,6.30
2009,03,04,09,45,6.30
2009,03,04,09,46,6.30
2009,03,04,09,47,6.30
2009,03,04,09,48,6.30
2009,03,04,09,49,6.40
2009,03,04,09,50,6.40
2009,03,04,09,51,6.50
2009,03,04,09,52,6.50
2009,03,04,09,53,6.50
2009,03,04,09,54,6.60
2009,03,04,09,55,6.60
2009,03,04,09,56,6.60
2009,03,04,09,57,6.60
2009,03,04,09,58,6.60
2009,03,04,09,59,6.60
2009,03,04,10,00,6.70
2009,03,04,10,01,6.70
2009,03,04,10,02,6.70
2009,03,04,10,03,6.60
2009,03,04,10,04,6.50
2009,03,04,10,05,6.50
2009,03,04,10,06,6.50
2009,03,04,10,07,6.50
2009,03,04,10,08,6.60
2009,03,04,10,09,6.70
2009,03,04,10,10,6.70
2009,03,04,10,11,6.70
2009,03,04,10,12,6.80
2009,03,04,10,13,6.80
2009,03,04,10,14,6.80
2009,03,04,10,15,6.80
2009,03,04,10,16,6.80
2009,03,04,10,17,6.80
2009,03,04,10,18,6.80
2009,03,04,10,19,6.90
2009,03,04,10,20,6.90
2009,03,04,10,21,7.00
2009,03,04,10,22,7.20
2009,03,04,10,23,7.20
2009,03,04,10,24,7.20
2009,03,04,10,25,7.30
2009,03,04,10,26,7.40
2009,03,04,10,27,7.40
2009,03,04,10,28,7.40
2009,03,04,10,29,7.40
2009,03,04,10,30,7.30
2009,03,04,10,31,7.30
2009,03,04,10,32,7.20
2009,03,04,10,33,7.20
2009,03,04,10,34,7.20
2009,03,04,10,35,7.20
2009,03,04,10,36,7.20
2009,03,04,10,37,7.20
2009,03,04,10,38,7.20
2009,03,04,10,39,7.20
2009,03,04,10,40,7.30
2009,03,04,10,41,7.30
2009,03,04,10,42,7.30
2009,03,04,10,43,7.30
2009,03,04,10,44,7.30
2009,03,04,10,45,7.30
2009,03,04,10,46,7.40
2009,03,04,10,47,7.50
2009,03,04,10,48,7.60
2009,03,04,10,49,7.60
2009,03,04,10,50,7.70
2009,03,04,10,51,7.70
2009,03,04,10,52,7.70
2009,03,04,10,53,7.70
2009,03,04,10,54,7.70
2009,03,04,10,55,7.80
2009,03,04,10,56,7.90
2009,03,04,10,57,8.00
2009,03,04,10,58,8.00
2009,03,04,10,59,8.00
2009,03,04,11,00,8.10
2009,03,04,11,01,8.20
2009,03,04,11,02,8.30
2009,03,04,11,03,8.30
2009,03,04,11,04,8.20
2009,03,04,11,05,8.20
2009,03,04,11,06,8.20
2009,03,04,11,07,8.10
2009,03,04,11,08,8.10
2009,03,04,11,09,8.10
2009,03,04,11,10,8.10
2009,03,04,11,11,8.10
2009,03,04,11,12,8.00
2009,03,04,11,13,8.00
2009,03,04,11,14,8.00
2009,03,04,11,15,7.90
2009,03,04,11,16,7.90
2009,03,04,11,17,7.80
2009,03,04,11,18,7.80
2009,03,04,11,19,7.90
2009,03,04,11,20,7.90
2009,03,04,11,21,7.90
2009,03,04,11,22,7.90
2009,03,04,11,23,7.80
2009,03,04,11,24,7.80
2009,03,04,11,25,7.80
2009,03,04,11,26,7.80
2009,03,04,11,27,7.90
2009,03,04,11,28,7.90
2009,03,04,11,29,7.80
2009,03,04,11,30,7.80
2009,03,04,11,31,7.80
2009,03,04,11,32,7.80
2009,03,04,11,33,7.90
2009,03,04,11,34,7.90
2009,03,04,11,35,8.00
2009,03,04,11,36,8.00
2009,03,04,11,37,7.90
2009,03,04,11,38,7.90
2009,03,04,11,39,7.90
2009,03,04,11,40,7.80
2009,03,04,11,41,7.70
2009,03,04,11,42,7.60
2009,03,04,11,43,7.50
2009,03,04,11,44,7.40
2009,03,04,11,45,7.30
2009,03,04,11,46,7.30
2009,03,04,11,47,7.30
2009,03,04,11,48,7.30
2009,03,04,11,49,7.30
2009,03,04,11,50,7.40
2009,03,04,11,51,7.40
2009,03,04,11,52,7.30
2009,03,04,11,53,7.30
2009,03,04,11,54,7.30
2009,03,04,11,55,7.30
2009,03,04,11,56,7.20
2009,03,04,11,57,7.20
2009,03,04,11,58,7.30
2009,03,04,11,59,7.50
2009,03,04,12,00,7.60
2009,03,04,12,01,7.70
2009,03,04,12,02,7.70
2009,03,04,12,03,7.80
2009,03,04,12,04,7.70
2009,03,04,12,05,7.60
2009,03,04,12,06,7.60
2009,03,04,12,07,7.60
2009,03,04,12,08,7.60
2009,03,04,12,09,7.60
2009,03,04,12,10,7.60
2009,03,04,12,11,7.50
2009,03,04,12,12,7.40
2009,03,04,12,13,7.40
2009,03,04,12,14,7.40
2009,03,04,12,15,7.30
2009,03,04,12,16,7.40
2009,03,04,12,17,7.50
2009,03,04,12,18,7.60
2009,03,04,12,19,7.60
2009,03,04,12,20,7.50
2009,03,04,12,21,7.50
2009,03,04,12,22,7.50
2009,03,04,12,23,7.60
2009,03,04,12,24,7.60
2009,03,04,12,25,7.60
2009,03,04,12,26,7.50
2009,03,04,12,27,7.60
2009,03,04,12,28,7.70
2009,03,04,12,29,7.70
2009,03,04,12,30,7.80
2009,03,04,12,31,7.70
2009,03,04,12,32,7.70
2009,03,04,12,33,7.80
2009,03,04,12,34,7.80
2009,03,04,12,35,7.80
2009,03,04,12,36,7.80
2009,03,04,12,37,7.80
2009,03,04,12,38,7.80
2009,03,04,12,39,7.80
2009,03,04,12,40,7.80
2009,03,04,12,41,7.70
2009,03,04,12,42,7.60
2009,03,04,12,43,7.60
2009,03,04,12,44,7.60
2009,03,04,12,45,7.70
2009,03,04,12,46,7.80
2009,03,04,12,47,8.00
2009,03,04,12,48,8.10
2009,03,04,12,49,8.20
2009,03,04,12,50,8.20
2009,03,04,12,51,8.30
2009,03,04,12,52,8.30
2009,03,04,12,53,8.40
2009,03,04,12,54,8.50
2009,03,04,12,55,8.50
2009,03,04,12,56,8.60
2009,03,04,12,57,8.60
2009,03,04,12,58,8.60
2009,03,04,12,59,8.60
2009,03,04,13,00,8.50
2009,03,04,13,01,8.50
2009,03,04,13,02,8.50
2009,03,04,13,03,8.30
2009,03,04,13,04,8.20
2009,03,04,13,05,8.10
2009,03,04,13,06,8.00
2009,03,04,13,07,8.00
2009,03,04,13,08,7.90
2009,03,04,13,09,7.90
2009,03,04,13,10,8.00
2009,03,04,13,11,8.10
2009,03,04,13,12,8.30
2009,03,04,13,13,8.40
2009,03,04,13,14,8.50
2009,03,04,13,15,8.60
2009,03,04,13,16,8.70
2009,03,04,13,17,8.80
2009,03,04,13,18,8.80
2009,03,04,13,19,8.70
2009,03,04,13,20,8.70
2009,03,04,13,21,8.70
2009,03,04,13,22,8.70
2009,03,04,13,23,8.70
2009,03,04,13,24,8.50
2009,03,04,13,25,8.50
2009,03,04,13,26,8.50
2009,03,04,13,27,8.50
2009,03,04,13,28,8.40
2009,03,04,13,29,8.20
2009,03,04,13,30,8.10
2009,03,04,13,31,8.00
2009,03,04,13,32,8.10
2009,03,04,13,33,8.10
2009,03,04,13,34,8.20
2009,03,04,13,35,8.30
2009,03,04,13,36,8.30
2009,03,04,13,37,8.20
2009,03,04,13,38,8.20
2009,03,04,13,39,8.10
2009,03,04,13,40,8.10
2009,03,04,13,41,8.10
2009,03,04,13,42,8.20
2009,03,04,13,43,8.10
2009,03,04,13,44,8.00
2009,03,04,13,45,7.90
2009,03,04,13,46,7.80
2009,03,04,13,47,7.60
2009,03,04,13,48,7.60
2009,03,04,13,49,7.60
2009,03,04,13,50,7.60
2009,03,04,13,51,7.70
2009,03,04,13,52,7.70
2009,03,04,13,53,7.70
2009,03,04,13,54,7.70
2009,03,04,13,55,7.80
2009,03,04,13,56,7.80
2009,03,04,13,57,7.90
2009,03,04,13,58,7.90
2009,03,04,13,59,7.90
2009,03,04,14,00,7.90
2009,03,04,14,01,7.90
2009,03,04,14,02,7.90
2009,03,04,14,03,7.90
2009,03,04,14,04,8.00
2009,03,04,14,05,8.00
2009,03,04,14,06,8.00
2009,03,04,14,07,8.00
2009,03,04,14,08,8.10
2009,03,04,14,09,8.20
2009,03,04,14,10,8.20
2009,03,04,14,11,8.30
2009,03,04,14,12,8.40
2009,03,04,14,13,8.40
2009,03,04,14,14,8.40
2009,03,04,14,15,8.40
2009,03,04,14,16,8.30
2009,03,04,14,17,8.30
2009,03,04,14,18,8.30
2009,03,04,14,19,8.30
2009,03,04,14,20,8.30
2009,03,04,14,21,8.30
2009,03,04,14,22,8.30
2009,03,04,14,23,8.30
2009,03,04,14,24,8.30
2009,03,04,14,25,8.30
2009,03,04,14,26,8.20
2009,03,04,14,27,8.20
2009,03,04,14,28,8.20
2009,03,04,14,29,8.20
2009,03,04,14,30,8.20
2009,03,04,14,31,8.10
2009,03,04,14,32,8.20
2009,03,04,14,33,8.20
2009,03,04,14,34,8.20
2009,03,04,14,35,8.20
2009,03,04,14,36,8.10
2009,03,04,14,37,8.10
2009,03,04,14,38,8.10
2009,03,04,14,39,8.10
2009,03,04,14,40,8.10
2009,03,04,14,41,8.10
2009,03,04,14,42,8.00
2009,03,04,14,43,8.00
2009,03,04,14,44,8.00
2009,03,04,14,45,8.00
2009,03,04,14,46,7.90
2009,03,04,14,47,7.90
2009,03,04,14,48,7.80
2009,03,04,14,49,7.80
2009,03,04,14,50,7.70
2009,03,04,14,51,7.70
2009,03,04,14,52,7.70
2009,03,04,14,53,7.70
2009,03,04,14,54,7.70
2009,03,04,14,55,7.70
2009,03,04,14,56,7.70
2009,03,04,14,57,7.70
2009,03,04,14,58,7.70
2009,03,04,14,59,7.80
2009,03,04,15,00,7.80
2009,03,04,15,01,7.90
2009,03,04,15,02,7.90
2009,03,04,15,03,7.90
2009,03,04,15,04,7.90
2009,03,04,15,05,7.90
2009,03,04,15,06,8.00
2009,03,04,15,07,8.00
2009,03,04,15,08,8.00
2009,03,04,15,09,8.00
2009,03,04,15,10,7.90
2009,03,04,15,11,7.90
2009,03,04,15,12,7.90
2009,03,04,15,13,7.90
2009,03,04,15,14,7.90
2009,03,04,15,15,7.90
2009,03,04,15,16,7.90
2009,03,04,15,17,7.90
2009,03,04,15,18,7.90
2009,03,04,15,19,8.00
2009,03,04,15,20,8.00
2009,03,04,15,21,8.00
2009,03,04,15,22,8.00
2009,03,04,15,23,8.00
2009,03,04,15,24,7.90
2009,03,04,15,25,8.00
2009,03,04,15,26,8.10
2009,03,04,15,27,8.10
2009,03,04,15,28,8.10
2009,03,04,15,29,8.10
2009,03,04,15,30,8.10
2009,03,04,15,31,8.00
2009,03,04,15,32,7.90
2009,03,04,15,33,7.80
2009,03,04,15,34,7.80
2009,03,04,15,35,7.80
2009,03,04,15,36,7.80
2009,03,04,15,37,7.80
2009,03,04,15,38,7.80
2009,03,04,15,39,7.80
2009,03,04,15,40,7.80
2009,03,04,15,41,7.80
2009,03,04,15,42,7.80
2009,03,04,15,43,7.90
2009,03,04,15,44,7.90
2009,03,04,15,45,7.90
2009,03,04,15,46,8.00
2009,03,04,15,47,8.00
2009,03,04,15,48,8.00
2009,03,04,15,49,8.10
2009,03,04,15,50,8.20
2009,03,04,15,51,8.20
2009,03,04,15,52,8.20
2009,03,04,15,53,8.20
2009,03,04,15,54,8.20
2009,03,04,15,55,8.20
2009,03,04,15,56,8.20
2009,03,04,15,57,8.20
2009,03,04,15,58,8.20
2009,03,04,15,59,8.20
2009,03,04,16,00,8.10
2009,03,04,16,01,8.10
2009,03,04,16,02,8.10
2009,03,04,16,03,8.10
2009,03,04,16,04,8.10
2009,03,04,16,05,8.10
2009,03,04,16,06,8.10
2009,03,04,16,07,8.10
2009,03,04,16,08,8.10
2009,03,04,16,09,8.10
2009,03,04,16,10,8.10
2009,03,04,16,11,8.10
2009,03,04,16,12,8.10
2009,03,04,16,13,8.10
2009,03,04,16,14,8.10
2009,03,04,16,15,8.10
2009,03,04,16,16,8.10
2009,03,04,16,17,8.10
2009,03,04,16,18,8.10
2009,03,04,16,19,8.10
2009,03,04,16,20,8.10
2009,03,04,16,21,8.10
2009,03,04,16,22,8.10
2009,03,04,16,23,8.10
2009,03,04,16,24,8.10
2009,03,04,16,25,8.20
2009,03,04,16,26,8.20
2009,03,04,16,27,8.20
2009,03,04,16,28,8.20
2009,03,04,16,29,8.20
2009,03,04,16,30,8.20
2009,03,04,16,31,8.20
2009,03,04,16,32,8.20
2009,03,04,16,33,8.20
2009,03,04,16,34,8.20
2009,03,04,16,35,8.20
2009,03,04,16,36,8.20
2009,03,04,16,37,8.20
2009,03,04,16,38,8.20
2009,03,04,16,39,8.20
2009,03,04,16,40,8.20
2009,03,04,16,41,8.30
2009,03,04,16,42,8.30
2009,03,04,16,43,8.30
2009,03,04,16,44,8.30
2009,03,04,16,45,8.30
2009,03,04,16,46,8.20
2009,03,04,16,47,8.20
2009,03,04,16,48,8.30
2009,03,04,16,49,8.30
2009,03,04,16,50,8.30
2009,03,04,16,51,8.30
2009,03,04,16,52,8.30
2009,03,04,16,53,8.30
2009,03,04,16,54,8.30
2009,03,04,16,55,8.30
2009,03,04,16,56,8.30
2009,03,04,16,57,8.30
2009,03,04,16,58,8.50
2009,03,04,16,59,8.50
2009,03,04,17,00,8.80
2009,03,04,17,01,9.00
2009,03,04,17,02,9.20
2009,03,04,17,03,9.30
2009,03,04,17,04,9.30
2009,03,04,17,05,9.40
2009,03,04,17,06,9.40
2009,03,04,17,07,9.40
2009,03,04,17,08,9.40
2009,03,04,17,09,9.50
2009,03,04,17,10,9.50
2009,03,04,17,11,9.50
2009,03,04,17,12,9.60
2009,03,04,17,13,9.60
2009,03,04,17,14,9.60
2009,03,04,17,15,9.60
2009,03,04,17,16,9.70
2009,03,04,17,17,9.70
2009,03,04,17,18,9.70
2009,03,04,17,19,9.70
2009,03,04,17,20,9.70
2009,03,04,17,21,9.70
2009,03,04,17,22,9.70
2009,03,04,17,23,9.70
2009,03,04,17,24,9.60
2009,03,04,17,25,9.60
2009,03,04,17,26,9.60
2009,03,04,17,27,9.50
2009,03,04,17,28,9.50
2009,03,04,17,29,9.50
2009,03,04,17,30,9.50
2009,03,04,17,31,9.60
2009,03,04,17,32,9.60
2009,03,04,17,33,9.60
2009,03,04,17,34,9.50
2009,03,04,17,35,9.50
2009,03,04,17,36,9.50
2009,03,04,17,37,9.50
2009,03,04,17,38,9.50
2009,03,04,17,39,9.50
2009,03,04,17,40,9.40
2009,03,04,17,41,9.50
2009,03,04,17,42,9.50
2009,03,04,17,43,9.50
2009,03,04,17,44,9.50
2009,03,04,17,45,9.50
2009,03,04,17,46,9.50
2009,03,04,17,47,9.50
2009,03,04,17,48,9.50
2009,03,04,17,49,9.40
2009,03,04,17,50,9.40
2009,03,04,17,51,9.40
2009,03,04,17,52,9.40
2009,03,04,17,53,9.40
2009,03,04,17,54,9.40
2009,03,04,17,55,9.30
2009,03,04,17,56,9.30
2009,03,04,17,57,9.30
2009,03,04,17,58,9.30
2009,03,04,17,59,9.30
2009,03,04,18,00,9.30
2009,03,04,18,01,9.30
2009,03,04,18,02,9.30
2009,03,04,18,03,9.30
2009,03,04,18,04,9.30
2009,03,04,18,05,9.30
2009,03,04,18,06,9.30